TimeCDT,TemperatureF,Dew PointF,Humidity,Sea Level PressureIn,VisibilityMPH,Wind Direction,Wind SpeedMPH,Gust SpeedMPH,PrecipitationIn,Events,Conditions,WindDirDegrees,DateUTC
12:54 AM,52.0,46.9,83,30.01,10.0,North,12.7,-,N/A,,Clear,360,2013-03-19 05:54:00
1:54 AM,51.1,46.0,83,30.03,10.0,NNE,10.4,-,N/A,,Clear,20,2013-03-19 06:54:00
2:54 AM,50.0,45.0,83,30.04,10.0,NNE,10.4,20.7,N/A,,Clear,30,2013-03-19 07:54:00
3:54 AM,48.9,44.1,83,30.05,10.0,NNE,8.1,17.3,N/A,,Clear,30,2013-03-19 08:54:00
4:54 AM,48.0,43.0,83,30.06,10.0,NE,6.9,-,N/A,,Clear,40,2013-03-19 09:54:00
5:54 AM,46.0,42.1,86,30.05,10.0,ENE,4.6,-,N/A,,Clear,70,2013-03-19 10:54:00
6:54 AM,45.0,41.0,86,30.05,10.0,ENE,4.6,-,N/A,,Clear,60,2013-03-19 11:54:00
7:54 AM,46.9,39.9,77,30.06,10.0,ENE,3.5,-,N/A,,Clear,60,2013-03-19 12:54:00
8:54 AM,50.0,39.0,66,30.07,10.0,East,9.2,-,N/A,,Clear,100,2013-03-19 13:54:00
9:54 AM,55.0,35.1,47,30.09,10.0,East,6.9,-,N/A,,Clear,80,2013-03-19 14:54:00
10:54 AM,57.9,35.1,42,30.11,10.0,NNE,8.1,-,N/A,,Partly Cloudy,30,2013-03-19 15:54:00
11:54 AM,61.0,35.1,38,30.12,10.0,NNE,8.1,-,N/A,,Clear,30,2013-03-19 16:54:00
12:54 PM,63.0,36.0,37,30.10,10.0,North,8.1,-,N/A,,Clear,360,2013-03-19 17:54:00
1:54 PM,66.0,32.0,28,30.08,10.0,ENE,8.1,-,N/A,,Clear,60,2013-03-19 18:54:00
2:54 PM,68.0,34.0,28,30.05,10.0,NNE,6.9,16.1,N/A,,Clear,20,2013-03-19 19:54:00
3:54 PM,70.0,32.0,25,30.02,10.0,NNE,9.2,-,N/A,,Clear,30,2013-03-19 20:54:00
4:54 PM,70.0,32.0,25,30.01,10.0,Variable,5.8,-,N/A,,Clear,0,2013-03-19 21:54:00
5:54 PM,66.9,30.9,26,30.02,10.0,NE,5.8,-,N/A,,Clear,50,2013-03-19 22:54:00
6:54 PM,64.0,34.0,33,30.02,10.0,NE,4.6,-,N/A,,Clear,50,2013-03-19 23:54:00
7:54 PM,61.0,36.0,39,30.03,10.0,NE,5.8,-,N/A,,Clear,50,2013-03-20 00:54:00
8:54 PM,59.0,34.0,39,30.05,10.0,ENE,4.6,-,N/A,,Clear,60,2013-03-20 01:54:00
9:54 PM,57.9,35.1,42,30.06,10.0,NE,6.9,-,N/A,,Clear,40,2013-03-20 02:54:00
10:54 PM,55.9,35.1,45,30.07,10.0,NNE,8.1,-,N/A,,Clear,30,2013-03-20 03:54:00
11:54 PM,55.9,35.1,45,30.07,10.0,NE,8.1,-,N/A,,Clear,40,2013-03-20 04:54:00